Flag for Western Sahara Weather past 2 weeks in Smara, Western Sahara

Now
59 °F

Passing clouds.


Feels Like: 57 °F
Forecast: 54 / 70 °F
Wind: 9 mph from North

Location: Laayoune/Hassan Isl

Current Time: Feb 1, 2015 at 7:44:42 AM

Latest Report: Feb 1, 2015 at 7:00 AM


Visibility: 5 mi

Pressure: 30.12 "Hg

Humidity: 88%

Dew point: 55 °F

Location of SmaraLocation

Historic Weather in Smara — Graph

°F

Smara temperature yesterday

Maximum temperature yesterday: 66 °F (at 1:00 PM)
Minimum temperature yesterday: 59 °F (at 1:00 AM)
Average temperature yesterday: 62 °F

Past Weeks' High & Low Weather Summary

 TemperatureHumidityPressure
High75 °F (Jan 26, 3:00 PM)100% (Jan 26, 6:00 AM)30.39 "Hg (Jan 26, 6:00 AM)
Low50 °F (Jan 26, 6:00 AM)29% (Jan 26, 3:00 PM)30.04 "Hg (Jan 20, 6:00 AM)
Average61 °F69%30.20 "Hg
* Reported Jan 17 7:00 AM — Feb 1 7:00 AM, Smara, Weather by CustomWeather, © 2014

Note: Actual official high and low records may vary slightly from our data, if they occured in-between our weather recording intervals... More about our weather records

Advertising

Smara weather history for previous 24 hours

 ConditionsComfort  
Time TempWeatherWind HumidityBarometerVisibility
7:00 AM
Feb 1
59 °FPassing clouds.9 mph88%30.12 "Hg5 mi
6:00 AM59 °FPassing clouds.9 mph88%30.09 "Hg5 mi
5:00 AM59 °FPassing clouds.13 mph88%30.09 "Hg5 mi
2:00 AM61 °FPassing clouds.10 mph83%30.12 "Hg5 mi
1:00 AM61 °FPassing clouds.10 mph83%30.12 "Hg5 mi
12:00 AM61 °FPassing clouds.12 mph83%30.12 "Hg5 mi
11:00 PM
Jan 31
61 °FPassing clouds.13 mph77%30.12 "Hg5 mi
10:00 PM61 °FPartly cloudy.12 mph72%30.12 "HgN/A
9:00 PM61 °FPartly cloudy.14 mph72%30.12 "HgN/A
8:00 PM61 °FPartly cloudy.14 mph77%30.09 "HgN/A
7:00 PM61 °FBroken clouds.17 mph83%30.09 "HgN/A
6:00 PM61 °FBroken clouds.18 mph83%30.07 "HgN/A
4:00 PM66 °FMore clouds than sun.20 mph64%30.07 "HgN/A
3:00 PM66 °FPartly sunny.20 mph64%30.07 "HgN/A
2:00 PM66 °FCloudy.21 mph68%30.07 "HgN/A
1:00 PM66 °FPartly sunny.16 mph73%30.12 "Hg5 mi
12:00 PM64 °FBroken clouds.21 mph73%30.15 "Hg5 mi
11:00 AM64 °FScattered clouds.16 mph68%30.15 "HgN/A
10:00 AM61 °FPartly sunny.12 mph83%N/A5 mi
9:00 AM59 °FBroken clouds.13 mph94%30.12 "Hg4 mi
8:00 AM59 °FLight rain. Mostly cloudy.15 mph88%30.12 "Hg2 mi
7:00 AM59 °FPartly cloudy.8 mph88%30.12 "Hg4 mi
Weather by CustomWeather, © 2014

See weather overviewHow to use our weather pages